Location: Moscow
(55.7500°N, 37.5830°E)
Time: 21:19:06
(UTC+03:00)

ISS - Pass Details

Date: 19 May 2021
Orbit: 417 x 422 km, 51.6° (Epoch: 16 June)

Event Time Altitude Azimuth Distance (km) Brightness Sun altitude
Rises 23:56:57 0° 267° (W) 2,369 0.1 -14.3°
Reaches altitude 10° 23:59:08 10° 259° (WSW) 1,505 -1.0 -14.3°
Maximum altitude 00:02:17 37° 190° (S) 672 -3.2 -14.3°
Enters shadow 00:03:32 26° 144° (SE) 859 -2.7 -14.4°
